International Falls, MN

12:31 PM CDT on June 23, 2017 (GMT -0500)
Falls International

Weather History for KINL - April, 2013

Change the Weather History Date:

Saturday, April 20, 2013

  Actual Average Record
Temperature  
Mean Temperature 21 °F 42 °F  
Max Temperature 38 °F 54 °F 85 °F (1923)
Min Temperature 4 °F 29 °F 4 °F (2013)
Degree Days  
Heating Degree Days 44 23  
Month to date heating degree days 759 562  
Since 1 July heating degree days 9828 9428  
Cooling Degree Days 0 0  
Month to date cooling degree days 0 0  
Year to date cooling degree days 0 0  
Moisture  
Dew Point 5 °F    
Average Humidity 51    
Maximum Humidity 80    
Minimum Humidity 21    
Precipitation  
Precipitation 0.00 in 0.05 in 0.85 in (1895)
Month to date precipitation 1.12 0.92  
Year to date precipitation 5.93 3.06  
Snow  
Snow 0.00 in 0.20 in 5.00 in (1970)
Month to date snowfall 11.9 5.1  
Since 1 July snowfall 96.9 69.5  
Snow Depth 20.00 in    
Sea Level Pressure  
Sea Level Pressure 30.22 in    
Wind  
Wind Speed 3 mph (ENE)    
Max Wind Speed 10 mph    
Max Gust Speed 13 mph    
Visibility 10 miles    
Events      
T = Trace of Precipitation, MM = Missing Value Source: NWS Daily Summary

Daily Weather History Graph

Daily Weather History Graph

Search for Another Location

Airport or City:

Trip Planner

Search our weather history database for the weather conditions in past years. The results will help you decide how hot, cold, wet, or windy it might be!

Date:

Astronomy

Apr. 20, 2013 Rise Set
Actual Time 6:13 AM CDT 8:12 PM CDT
Civil Twilight 5:39 AM CDT 8:46 PM CDT
Nautical Twilight 4:57 AM CDT 9:28 PM CDT
Astronomical Twilight 4:11 AM CDT 10:15 PM CDT
Moon 2:32 PM CDT (4/20) 3:29 AM CDT (4/20)
Length of Visible Light 15h 07m
Length of Day
13h 59m
Waxing Gibbous, 71% of the Moon is Illuminated
Apr 20
Waxing Gibbous
Apr 25
Full
May 2
Last Quarter
May 9
New
May 17
First Quarter

Hourly Weather History & Observations

Time (CDT) Temp. Windchill Dew Point Humidity Pressure Visibility Wind Dir Wind Speed Gust Speed Precip Events Conditions
12:55 AM 19.0 °F 11.1 °F 5.0 °F 54% 30.04 in 10.0 mi NW 5.8 mph - N/A   Clear
1:55 AM 14.0 °F 6.5 °F 3.9 °F 64% 30.06 in 10.0 mi NNW 4.6 mph - N/A   Clear
2:55 AM 10.0 °F - 3.9 °F 76% 30.09 in 10.0 mi Calm Calm - N/A   Clear
3:55 AM 18.0 °F 11.1 °F 3.9 °F 54% 30.11 in 10.0 mi North 4.6 mph - N/A   Clear
4:55 AM 14.0 °F - 5.0 °F 67% 30.14 in 10.0 mi Calm Calm - N/A   Clear
5:55 AM 6.1 °F - 1.9 °F 83% 30.17 in 10.0 mi Calm Calm - N/A   Clear
6:55 AM 10.0 °F 3.6 °F 3.9 °F 76% 30.19 in 10.0 mi NNE 3.5 mph - N/A   Clear
7:55 AM 19.0 °F 12.3 °F 3.9 °F 52% 30.21 in 10.0 mi NE 4.6 mph - N/A   Clear
8:55 AM 21.9 °F - 3.0 °F 44% 30.25 in 10.0 mi Calm Calm - N/A   Clear
9:55 AM 24.1 °F - 3.0 °F 40% 30.25 in 10.0 mi Calm Calm - N/A   Clear
10:55 AM 28.0 °F - 3.0 °F 34% 30.27 in 10.0 mi Calm Calm - N/A   Clear
11:55 AM 28.0 °F - 3.9 °F 36% 30.28 in 10.0 mi Calm Calm - N/A   Clear
12:55 PM 30.0 °F - 3.0 °F 32% 30.27 in 10.0 mi Calm Calm - N/A   Clear
1:55 PM 32.0 °F - -0.0 °F 26% 30.27 in 10.0 mi Calm Calm - N/A   Clear
2:55 PM 35.1 °F - 1.0 °F 24% 30.27 in 10.0 mi Calm Calm - N/A   Clear
3:55 PM 37.0 °F - 1.0 °F 22% 30.26 in 10.0 mi Calm Calm - N/A   Clear
4:55 PM 36.0 °F 29.6 °F 7.0 °F 30% 30.26 in 10.0 mi NE 8.1 mph - N/A   Clear
5:55 PM 36.0 °F 31.1 °F 8.1 °F 31% 30.26 in 10.0 mi East 5.8 mph - N/A   Clear
6:55 PM 36.0 °F 29.6 °F 8.1 °F 31% 30.25 in 10.0 mi East 8.1 mph - N/A   Clear
7:55 PM 33.1 °F 24.9 °F 10.0 °F 38% 30.26 in 10.0 mi East 10.4 mph - N/A   Clear
8:55 PM 28.0 °F 21.7 °F 10.0 °F 47% 30.27 in 10.0 mi ESE 5.8 mph - N/A   Clear
9:55 PM 26.1 °F 21.9 °F 9.0 °F 49% 30.28 in 10.0 mi SE 3.5 mph - N/A   Clear
10:55 PM 25.0 °F 19.3 °F 9.0 °F 51% 30.28 in 10.0 mi SSE 4.6 mph - N/A   Clear
11:55 PM 26.1 °F 19.4 °F 8.1 °F 47% 30.27 in 10.0 mi SSE 5.8 mph - N/A   Clear